#timestamp,LO_Frequency,Hit,StdDev 
1607647155.7,286047014.8,P
1607647175.5,286047018.6,P
1607647195.3,286047018.3,P
1607647215.2,286047016.2,Y
1607647235.0,286047000.5,P
1607647235.9,286047000.5,N
1607647255.7,286046998.5,N
1607647275.6,286047002.7,N
1607647295.4,286047000.2,N
1607647315.3,286046999.7,N
1607647335.1,286047001.9,N
1607647336.0,286047001.9,N
1607647355.8,286047004.3,N
1607647375.7,286047002.5,N
1607647395.5,286046999.8,N
1607647415.4,286047003.6,N
1607647435.2,286047004.1,N
1607647455.0,286047005.5,N
1607647455.9,286047005.5,N
1607647475.8,286047003.4,N
1607647495.6,286047004.0,N
1607647515.4,286047001.3,N
1607647535.3,286047001.7,N
1607647555.1,286047003.1,N
1607647575.9,286047004.0,N
1607647595.7,286047003.6,N
1607647615.5,286047005.7,N
1607647635.4,286047005.9,N
1607647655.2,286047003.5,N
1607647675.0,286047003.8,N
1607647675.9,286047003.8,N
1607647695.8,286047004.3,N
1607647715.6,286047004.4,N
1607647735.5,286047003.1,N
1607647755.3,286047002.9,N
1607647775.1,286047003.8,N
1607647795.9,286047001.3,N
1607647815.7,286047005.1,Y
1607647835.6,286047001.6,P
1607647855.4,286047002.5,P
1607647875.2,286047001.9,N
1607647895.1,286047001.9,Y
1607647896.0,286047001.9,P
1607647915.8,286047000.7,P
1607647935.6,286047002.1,P
1607647955.5,286046999.9,N
1607647975.3,286046998.2,N
1607647995.2,286047000.9,N
1607648015.9,286046999.7,N
1607648035.7,286047002.4,N
1607648055.6,286046999.8,N
1607648075.4,286047002.0,N
1607648095.3,286047001.3,N
1607648115.1,286047004.2,Y
1607648116.0,286047004.2,P
1607648135.8,286047003.9,N
1607648155.7,286047002.6,N
1607648175.5,286047003.9,Y
1607648195.3,286047001.1,P
1607648215.2,286047001.2,N
1607648235.0,286047000.3,N
1607648235.9,286047000.3,N
1607648255.8,286046999.8,N
1607648275.6,286047002.8,N
1607648295.4,286047001.9,N
1607648315.3,286047002.3,N
1607648335.1,286047000.6,N
1607648355.9,286047002.6,N
1607648375.7,286047004.4,Y
1607648395.5,286046999.9,P
